#timestamp,LO_Frequency,Hit,StdDev 
1619366415.7,286047002.4,N
1619366435.6,286046999.8,N
1619366455.4,286047003.5,N
1619366475.3,286047004.1,N
1619366495.1,286047001.6,N
1619366515.9,286047002.4,N
1619366535.7,286047002.7,N
1619366555.5,286047002.4,N
1619366575.4,286046999.9,N
1619366595.2,286047002.4,N
1619366615.1,286047000.2,N
1619366616.0,286047000.2,N
1619366635.8,286047000.5,N
1619366655.6,286047001.2,N
1619366675.5,286046998.6,N
1619366695.3,286047002.8,N
1619366715.1,286047003.5,N
1619366735.9,286047003.2,N
1619366755.7,286047001.5,N
1619366775.6,286047004.4,N
1619366795.4,286047001.7,N
1619366815.2,286047003.4,N
1619366835.1,286047002.0,N
1619366836.0,286047002.0,N
1619366855.8,286047002.2,N
1619366875.7,286046999.7,N
1619366895.5,286046998.2,N
1619366915.3,286046998.8,N
1619366935.2,286046996.5,N
1619366955.9,286047000.5,N
1619366975.7,286047004.3,N
1619366995.6,286047004.4,N
1619367015.4,286047003.6,N
1619367035.3,286047003.6,N
1619367055.1,286047005.8,N
1619367056.0,286047005.8,N
1619367075.8,286047004.5,N
1619367095.7,286047003.2,N
1619367115.5,286047003.5,N
1619367135.3,286047004.4,N
1619367155.2,286046999.8,N
1619367175.0,286046998.1,N
1619367175.9,286046998.1,N
1619367195.8,286046999.9,N
1619367215.6,286046999.7,N
1619367235.4,286047002.4,N
1619367255.3,286047001.9,N
1619367275.1,286046999.8,N
1619367295.8,286047004.4,N
1619367315.7,286047002.7,N
1619367335.5,286047000.9,N
1619367355.4,286047002.4,N
1619367375.2,286047002.7,N
1619367395.0,286047001.1,N
1619367395.9,286047001.1,N
1619367415.8,286046998.1,N
1619367435.6,286047004.2,N
1619367455.4,286047004.2,N
1619367475.3,286047002.2,N
1619367495.1,286047004.1,N
1619367515.9,286047003.7,N
1619367535.7,286047000.3,N
1619367555.5,286047001.2,N
1619367575.4,286047001.0,N
1619367595.2,286046998.5,N
1619367615.0,286046999.3,N
1619367616.0,286046999.3,N
1619367635.8,286047000.9,N
1619367655.6,286047001.0,N
1619367675.5,286047002.8,N
1619367695.3,286047002.3,N
1619367715.1,286046999.7,N
1619367735.9,286047000.3,N
1619367755.7,286046998.8,N
1619367775.6,286046998.7,N
1619367795.4,286047001.2,N
1619367815.3,286046998.8,N
1619367835.1,286046998.1,N
1619367836.0,286046998.1,N
1619367855.8,286047001.0,N
1619367875.7,286046998.3,N
1619367895.5,286046999.0,N
1619367915.3,286046998.5,N
1619367935.2,286046998.7,N
1619367955.0,286046998.7,N
1619367955.9,286046998.7,N
1619367975.8,286046996.9,N
1619367995.6,286047001.0,N
1619368015.4,286047002.1,N
1619368035.3,286047003.8,N
1619368055.1,286047005.6,Y
1619368075.9,286047002.2,P
1619368095.7,286047004.4,P
1619368115.5,286047005.5,P
1619368135.4,286047003.6,N
1619368155.2,286047002.1,N
1619368175.0,286046999.7,N
1619368175.9,286046999.7,N
1619368195.8,286046998.5,N
1619368215.6,286046998.2,N
1619368235.5,286047000.6,N
1619368255.3,286046998.5,N
1619368275.1,286046998.3,N
1619368295.9,286046998.4,N
1619368315.7,286047001.2,N
1619368335.5,286047000.6,N
1619368355.4,286047002.1,N
1619368375.2,286047000.0,N
1619368395.1,286047003.9,N
1619368396.0,286047003.9,N
1619368415.8,286047004.7,N
1619368435.6,286047003.3,N
1619368455.5,286047002.2,N
1619368475.3,286047000.8,N
1619368495.2,286046999.5,N
1619368515.9,286046998.7,N
1619368535.7,286046997.0,N
1619368555.6,286046994.9,N
1619368575.4,286046999.6,N
1619368595.2,286046996.6,N
1619368615.1,286046996.9,N
1619368616.0,286046996.9,N
1619368635.8,286046999.1,N
1619368655.7,286046998.6,N
1619368675.5,286047000.8,N
1619368695.3,286047001.8,N
1619368715.2,286047002.3,N
1619368735.9,286047001.2,N
1619368755.7,286046996.8,N
1619368775.6,286046997.9,N
1619368795.4,286046999.6,N
1619368815.3,286046996.9,N
1619368835.1,286046996.6,N
1619368836.0,286046996.6,N
1619368855.8,286046998.5,N
1619368875.7,286047002.2,N
1619368895.5,286047000.2,N
1619368915.3,286046999.9,N
1619368935.2,286047000.7,N
1619368955.0,286046998.9,N
1619368955.9,286046998.9,N
1619368975.8,286046997.8,N
1619368995.6,286046997.6,N
1619369015.4,286046995.4,N
1619369035.3,286047000.9,N
1619369055.1,286047004.3,N
1619369075.8,286047000.0,N
1619369095.7,286047000.3,N
1619369115.5,286047000.7,N
1619369135.4,286046998.2,N
1619369155.2,286046999.0,N
1619369175.0,286046999.4,N
1619369175.9,286046999.4,N
1619369195.8,286046998.4,N
1619369215.6,286046997.3,N
1619369235.5,286046999.4,N
1619369255.3,286046996.9,N
1619369275.1,286046996.9,N
1619369295.9,286046995.8,N
1619369315.7,286046997.4,N
1619369335.5,286046997.4,N
1619369355.4,286046995.8,N
1619369375.2,286046997.3,N
1619369395.1,286046999.4,N
1619369396.0,286046999.4,N
1619369415.8,286046998.8,N
1619369435.6,286046998.1,N
1619369455.5,286046999.9,N
1619369475.3,286046998.6,N
1619369495.2,286046998.2,N
1619369515.9,286046999.0,N
1619369535.7,286046998.6,N
1619369555.6,286046998.2,N
1619369575.4,286047002.2,N
1619369595.2,286047000.5,N
1619369615.1,286047000.7,N
1619369616.0,286047000.7,N
1619369635.8,286046998.4,N
1619369655.7,286046999.0,N
1619369675.5,286046997.0,N
1619369695.3,286046999.3,N
1619369715.2,286046996.7,N
1619369735.0,286046997.0,N
1619369735.9,286046997.0,N
1619369755.8,286046997.2,N
1619369775.6,286046997.3,N
1619369795.4,286046996.8,N
1619369815.3,286046996.8,N
1619369835.1,286046997.9,N
1619369855.8,286046995.5,Y
1619369875.7,286046997.2,P
1619369895.5,286046997.1,P
1619369915.4,286046997.9,P
1619369935.2,286046994.9,Y
1619369955.0,286046996.9,P
1619369955.9,286046996.9,P
1619369975.8,286046997.5,P
1619369995.6,286046999.1,N
